Showing default

YAOGAN-30 L, 43171

Orbit data source: Space-Track

YAOGAN-30 L, 43171 is a payload satellite owned by PLA SSF (CN) in LEO that was launched on Thu, 25 Jan 2018 UTC via a CHANG ZHENG 2C launch vehicle from the Xichang Space Center, China (XSC). Payload-class satellites include a variety of spacecraft equipped with specific instruments for various scientific and technological missions. These include communications satellites like Starlink; space stations such as the ISS; scientific satellites like the Hubble; Earth observation satellites from companies like Planet Labs, Umbra, and HawkEye 360; GPS; miniature CubeSats for education and research; and military/defense satellites.

Loading next visibility...
Identifier
43171, 2018-011C
Orbit
LEO
Country
Flag of CNCN / PRC
Related business
Manufacturer
SECM
Mission
Operational Defense Sigint
Bus & Motor
Unknown
Mass
~500 kg wet, ~500 kg dry
Launch date (UTC)
2018-01-25 (8 years ago)
Launch vehicle
CHANG ZHENG 2C
Launch site
Xichang Space Center, China (XSC)
Object type
Payload
Rocket body
Debris
Shape & HBR
Box + 2 Pan, 0.5 m
Radar Cross Section
0.446 m², Large (>1 m²)

Expand to show TLE details & history
Last TLE update: 12 hours ago

TLE from 12 hours ago
0 YAOGAN-30 L
1 43171U 18011C   25259.33641417  .00003386  00000-0  26521-3 0  9998
2 43171  34.9966  17.5047 0001732 118.6178 241.4704 15.00558865417023
Epoch: 2025-09-16T08:04Z
TLE epoch observation values (Epoch: 2025-09-16T08:04:26.184Z)
Latitude
-0°
Longitude
-99.13258°
Altitude
564.664 km
Speed
7.581 km/s
True Right ascension
01h 10m 01s
True Declination
0° 00' 00"
Sunlit
Object was in full shadow at epoch
Visualization orbit readout
Latitude
Unknown
Longitude
Unknown
Altitude
Unknown
Speed
Unknown
Apparent Right ascension
Unknown
Apparent Declination
Unknown
Sunlit
N/A
Visualization observer readout
Local Sidereal Time
12:42:24
Azimuth
Unknown
Elevation
Unknown
Doppler factor
Unknown
Orbital elements
Apogee altitude
569.594 km
Perigee altitude
567.187 km
Semi-major axis
6,946.528 km
Eccentricity
0.00017
Inclination
34.9966°
RAAN
17.5047°
Arg. of periapsis
118.6178°
True anomaly
241.45296°
Mean anomaly
241.4704°
Eccentric anomaly
241.46168°
Mean motion
3.74879 °/min
Orbital period
96.03 mins
BSTAR
0.00026521
Loading maneuver chart data...
Computing Atmospheric mass density...
Loading historical data...
Loading historical data...
Loading historical data...
Loading historical data...
Loading historical data...
Loading historical data...
Loading historical data...
Other satellites on launch #11 in the year 2018 (2018-01-25 UTC)

Documentation

Showing up to 5 results
|